Weather in Vishnevoye

Russia / Tambov Oblast     53°13′51″N   40°41′35″E
temp.,
°C
wind,
m/s
gust,
m/s
humid.,
%
clouds,
%
prec.,
mm/h
press.,
hPa
HPBL,
m
3 march, wed
wed300:00−3nw499494 0.1 1009205
03:00−4nw5129577 0.1 1010345
06:00−3nw6129687 0.3 1011566
09:00−5nnw6138986 0.5 1014509
12:00−4nw6118827 0.0 1015661
15:00−3nw5108649 0.0 1016791
18:00−3w5109269 0.0 1015361
21:00−2w6119584 0.3 1015619
4 march, thu
thu400:00−2w61293100 0.1 1013601
03:00−3wsw61292100 0.2 1011585
06:00−2wsw71493100 0.1 1008534
09:00−1wsw81789100 0.5 1007616
12:00+1wsw8158699 0.0 1005805
15:00+1wsw7138998 0.0 1004896
18:00+1wsw61390100 0.0 1002716
21:00+1sw51193100 0.0 1001501
5 march, fri
fri500:00+1wsw61298100 0.7 999488
03:000w5998100 1.6 999400
06:000w4799100 1.4 1000352
09:00−3n5894100 2.6 1003482
12:00−3n5792100 0.1 1006557
15:00−3nnw3589100 0.1 1009585
18:00−7nnw239291 0.0 101027
21:00−8n229495 0.0 101221
6 march, sat
sat600:00−10n229379 0.0 101321
03:00−10nw129287 0.0 101421
06:00−10wnw349514 0.0 101451
09:00−10nw489118 0.0 1015233
12:00−8nw46920 0.0 1016287
15:00−7nw359036 0.0 1016448
18:00−10wnw239253 0.0 101621
21:00−11nw239327 0.0 101721
7 march, sun
sun700:00−12wsw23930 0.0 101724
03:00−11sw469413 0.0 1016112
06:00−10sw5129212 0.0 1013279
09:00−7sw8158057 0.0 1010763
12:00−4sw101675100 0.0 10071069
15:00−3sw111982100 0.1 10031179
18:00−3sw112087100 0.5 10001226
21:00−2wsw101884100 0.5 9991022